Location: Basses Si�yes
(44.0835°N, 6.2037°E)
Time: 18:39:16
(UTC+00:00)

Cosmos 1125 Rocket - Pass Details

Date: 27 February 2020
Orbit: 757 x 780 km, 74.0° (Epoch: 06 April)

Event Time Altitude Azimuth Distance (km) Brightness Sun altitude
Rises 19:25:36 0° 345° (NNW) 3,273 7.1 -23.2°
Reaches altitude 10° 19:28:09 10° 353° (N) 2,343 6.2 -23.7°
Enters shadow 19:32:01 35° 32° (NNE) 1,238 4.4 -24.4°
